Weather History for KENW - December, 2012

Change the Weather History Date:

Thursday, December 20, 2012

  Actual Average Record
Temperature  
Mean Temperature 38 °F -  
Max Temperature 44 °F 32 °F 59 °F (1949)
Min Temperature 33 °F 18 °F -10 °F (1963)
Degree Days  
Heating Degree Days 26    
Moisture  
Dew Point 35 °F    
Average Humidity 89    
Maximum Humidity 93    
Minimum Humidity 85    
Precipitation  
Precipitation 1.48 in - - ()
Sea Level Pressure  
Sea Level Pressure 29.38 in    
Wind  
Wind Speed 20 mph (NE)    
Max Wind Speed 26 mph    
Max Gust Speed 38 mph    
Visibility 2 miles    
Events Rain , Snow    
Averages and records for this station are not official NWS values.
T = Trace of Precipitation, MM = Missing Value Source: NWS Daily Summary

Daily Weather History Graph

Daily Weather History Graph

Search for Another Location

Airport or City:

Trip Planner

Search our weather history database for the weather conditions in past years. The results will help you decide how hot, cold, wet, or windy it might be!

Date:

Astronomy

Dec. 20, 2012 Rise Set
Actual Time 7:18 AM CST 4:21 PM CST
Civil Twilight 6:46 AM CST 4:53 PM CST
Nautical Twilight 6:10 AM CST 5:28 PM CST
Astronomical Twilight 5:36 AM CST 6:03 PM CST
Moon 11:45 AM CST (12/20) No Moon Set
Length of Visible Light 10h 07m
Length of Day
9h 03m
First Quarter, 55% of the Moon is Illuminated
Dec 20
First Quarter
Dec 28
Full
Jan 4
Last Quarter
Jan 11
New
Jan 18
First Quarter

Hourly Weather History & Observations

Time (CST) Temp. Windchill Dew Point Humidity Pressure Visibility Wind Dir Wind Speed Gust Speed Precip Events Conditions
12:35 AM 39.2 °F 29.6 °F 35.6 °F 87% 29.81 in 2.5 mi East 19.6 mph 29.9 mph 0.04 in Rain Light Rain
12:49 AM 39.2 °F 29.3 °F 35.6 °F 87% 29.81 in 3.0 mi East 20.7 mph 27.6 mph 0.05 in Rain Light Rain
12:53 AM 39.0 °F 30.6 °F 36.0 °F 89% 29.83 in 4.0 mi East 15.0 mph 27.6 mph 0.05 in Rain Light Rain
1:11 AM 39.2 °F 29.0 °F 35.6 °F 87% 29.80 in 2.5 mi East 21.9 mph 29.9 mph 0.03 in Rain Rain
1:37 AM 39.2 °F 29.3 °F 35.6 °F 87% 29.76 in 3.0 mi East 20.7 mph 27.6 mph 0.07 in Rain Rain
1:53 AM 39.9 °F 30.2 °F 36.0 °F 86% 29.75 in 4.0 mi East 20.7 mph 27.6 mph 0.08 in Rain Light Rain
2:03 AM 39.2 °F 28.7 °F 37.4 °F 93% 29.73 in 2.5 mi East 23.0 mph 29.9 mph 0.01 in Rain Rain
2:28 AM 39.2 °F 29.3 °F 35.6 °F 87% 29.72 in 3.0 mi East 20.7 mph 32.2 mph 0.05 in Rain Rain
2:36 AM 39.2 °F 28.7 °F 35.6 °F 87% 29.71 in 2.5 mi East 23.0 mph 28.8 mph 0.07 in Rain Rain
2:53 AM 39.9 °F 30.0 °F 36.0 °F 86% 29.70 in 2.5 mi East 21.9 mph 35.7 mph 0.09 in Rain Rain
3:12 AM 39.2 °F 29.6 °F 37.4 °F 93% 29.66 in 2.5 mi East 19.6 mph - 0.03 in Rain Rain
3:53 AM 39.9 °F 30.0 °F 37.0 °F 89% 29.64 in 2.5 mi East 21.9 mph 32.2 mph 0.12 in Rain Light Rain
4:03 AM 39.2 °F 28.3 °F 37.4 °F 93% 29.60 in 3.0 mi East 25.3 mph 31.1 mph 0.00 in Rain Light Rain
4:49 AM 39.2 °F 29.3 °F 37.4 °F 93% 29.55 in 2.0 mi East 20.7 mph 35.7 mph 0.02 in Rain Light Rain
4:53 AM 39.9 °F 30.0 °F 37.0 °F 89% 29.57 in 2.0 mi East 21.9 mph 35.7 mph 0.02 in Rain Light Rain
5:04 AM 41.0 °F 31.1 °F 37.4 °F 87% 29.53 in 4.0 mi East 23.0 mph 32.2 mph 0.00 in Rain Light Rain
5:37 AM 41.0 °F 31.9 °F 37.4 °F 87% 29.49 in 2.5 mi East 19.6 mph 27.6 mph 0.05 in Rain Rain
5:53 AM 41.0 °F 30.9 °F 37.9 °F 89% 29.48 in 2.5 mi East 24.2 mph 34.5 mph 0.09 in Rain Rain
6:53 AM 42.1 °F 33.9 °F 39.0 °F 89% 29.45 in 2.5 mi ESE 17.3 mph 26.5 mph 0.16 in Rain Rain
7:53 AM 42.1 °F 32.6 °F 39.9 °F 92% 29.33 in 2.0 mi East 23.0 mph 32.2 mph 0.11 in Rain Light Rain
8:53 AM 44.1 °F 37.7 °F 41.0 °F 89% 29.34 in 3.0 mi SE 12.7 mph - N/A   Overcast
9:53 AM 44.1 °F 36.5 °F 41.0 °F 89% 29.29 in 3.0 mi ESE 17.3 mph 24.2 mph 0.00 in Rain Light Rain
10:53 AM 44.1 °F 36.5 °F 41.0 °F 89% 29.21 in 1.8 mi ESE 17.3 mph 25.3 mph 0.08 in Rain Light Rain
11:00 AM 44.6 °F 37.4 °F 41.0 °F 87% 29.18 in 3.0 mi ESE 16.1 mph 25.3 mph 0.00 in Rain Light Rain
11:22 AM 44.6 °F 38.1 °F 41.0 °F 87% 29.16 in 2.0 mi East 13.8 mph - 0.01 in Rain Rain
11:53 AM 44.1 °F 36.5 °F 42.1 °F 93% 29.14 in 2.0 mi ESE 17.3 mph - 0.02 in Rain Light Rain
12:17 PM 44.6 °F 38.1 °F 42.8 °F 93% 29.10 in 1.0 mi East 13.8 mph - 0.02 in Rain Light Rain
12:53 PM 44.1 °F 39.5 °F 42.1 °F 93% 29.10 in 0.8 mi NNE 8.1 mph - 0.06 in Rain Light Rain
1:49 PM 42.8 °F 35.8 °F 41.0 °F 93% 29.06 in 1.0 mi NNE 13.8 mph - 0.25 in Rain Heavy Rain
1:53 PM 43.0 °F 35.7 °F 41.0 °F 93% 29.08 in 1.0 mi NNE 15.0 mph - 0.27 in Rain Heavy Rain
2:53 PM 41.0 °F 32.5 °F 37.9 °F 89% 29.05 in 2.5 mi North 17.3 mph 28.8 mph 0.13 in Rain Light Rain
3:33 PM 37.4 °F 27.5 °F 35.6 °F 93% 29.07 in 3.0 mi North 18.4 mph 33.4 mph 0.06 in Rain Light Rain
3:53 PM 37.0 °F 28.5 °F 34.0 °F 89% 29.11 in 5.0 mi North 13.8 mph 26.5 mph 0.07 in Rain Light Rain
4:14 PM 33.8 °F 24.8 °F 32.0 °F 93% 29.11 in 2.0 mi NNW 12.7 mph 21.9 mph 0.01 in Rain , Snow Light Snow
4:53 PM 34.0 °F 24.6 °F 30.9 °F 89% 29.16 in 2.0 mi NNW 13.8 mph 23.0 mph 0.04 in Snow Light Snow
5:00 PM 33.8 °F 25.3 °F 30.2 °F 87% 29.15 in 1.0 mi NNW 11.5 mph 19.6 mph 0.01 in Snow Light Snow
5:53 PM 33.1 °F 23.4 °F 30.9 °F 92% 29.18 in 1.0 mi NW 13.8 mph 23.0 mph 0.05 in Snow Light Snow
6:53 PM 34.0 °F 22.4 °F 30.9 °F 89% 29.22 in 1.5 mi NW 20.7 mph 28.8 mph 0.02 in Snow Light Snow
7:53 PM 33.1 °F 21.2 °F 30.9 °F 92% 29.26 in 1.0 mi NW 20.7 mph 33.4 mph 0.01 in Snow Light Snow
7:57 PM 33.8 °F 22.2 °F 30.2 °F 87% 29.24 in 0.8 mi NW 20.7 mph 31.1 mph 0.00 in Snow Light Snow
8:50 PM 33.8 °F 20.8 °F 30.2 °F 87% 29.27 in 1.0 mi NW 26.5 mph 35.7 mph 0.00 in Snow Light Snow
8:53 PM 33.1 °F 20.6 °F 30.0 °F 89% 29.29 in 1.0 mi NNW 23.0 mph 34.5 mph 0.00 in   Overcast
9:00 PM 33.8 °F 21.3 °F 30.2 °F 87% 29.27 in - NW 24.2 mph 33.4 mph N/A Snow Light Snow
9:13 PM 33.8 °F 22.2 °F 30.2 °F 87% 29.28 in 1.2 mi NW 20.7 mph 35.7 mph N/A Snow Light Snow
9:34 PM 33.8 °F 21.6 °F 30.2 °F 87% 29.30 in 1.0 mi NW 23.0 mph 34.5 mph N/A Snow Light Snow
9:42 PM 33.8 °F 21.9 °F 30.2 °F 87% 29.30 in 1.2 mi NW 21.9 mph 36.8 mph N/A Snow Light Snow
9:50 PM 33.8 °F 22.2 °F 30.2 °F 87% 29.31 in 1.0 mi NW 20.7 mph 34.5 mph N/A Snow Light Snow
9:53 PM 33.1 °F 20.9 °F 30.9 °F 92% 29.33 in 1.0 mi NW 21.9 mph 34.5 mph N/A Snow Light Snow
10:04 PM 33.8 °F 21.3 °F 30.2 °F 87% 29.32 in 1.0 mi NW 24.2 mph 35.7 mph 0.00 in Snow Light Snow
10:43 PM 33.8 °F 22.2 °F 30.2 °F 87% 29.36 in 1.5 mi NW 20.7 mph 31.1 mph 0.01 in Snow Light Snow
10:53 PM 33.1 °F 22.6 °F 30.9 °F 92% 29.38 in 1.2 mi NW 16.1 mph 31.1 mph 0.01 in Snow Light Snow
11:03 PM 33.8 °F 22.8 °F 30.2 °F 87% 29.37 in 1.0 mi NW 18.4 mph 32.2 mph 0.00 in Snow Light Snow
11:24 PM 33.8 °F - 30.2 °F 87% 29.38 in - North - - 0.00 in   Unknown
11:40 PM 33.8 °F 21.6 °F 30.2 °F 87% 29.39 in 1.5 mi NW 23.0 mph 36.8 mph 0.00 in Snow Light Snow
11:53 PM 34.0 °F 21.5 °F 30.0 °F 85% 29.42 in 1.5 mi NNW 24.2 mph 38.0 mph 0.00 in Snow Light Snow